EW0435 Weather Reports


Display with metric or nautical units.
time (UTC)temp
F
wind
direction
speed
MPH
gust
MPH
rain 1hr
in
rain 24hr
in
rain mn
in
humidity
%
barometer
mb
20260901165004 74 151 0.0 0.0 0.00 0.00 0.00 25 1014.3
20260901164503 74 124 0.0 1.0 0.00 0.00 0.00 27 1014.3
20260901164004 74 146 0.0 2.0 0.00 0.00 0.00 26 1014.3
20260901163503 74 146 0.0 0.0 0.00 0.00 0.00 27 1014.3
20260901163004 73 148 0.0 0.0 0.00 0.00 0.00 27 1014.3
20260901162504 72 165 0.0 1.0 0.00 0.00 0.00 28 1014.3
20260901162004 71 162 0.0 0.0 0.00 0.00 0.00 30 1014.3
20260901161503 70 155 0.0 0.0 0.00 0.00 0.00 31 1014.3
20260901161004 69 156 0.0 1.0 0.00 0.00 0.00 32 1014.4
20260901160503 69 155 0.0 0.0 0.00 0.00 0.00 32 1014.4
20260901160004 68 141 0.0 3.0 0.00 0.00 0.00 32 1014.4
20260901155504 68 158 0.0 1.0 0.00 0.00 0.00 32 1014.5
20260901155004 67 167 0.0 1.0 0.00 0.00 0.00 33 1014.5
20260901154504 66 153 0.0 1.0 0.00 0.00 0.00 34 1014.6
20260901154004 65 150 0.0 1.0 0.00 0.00 0.00 35 1014.6
20260901153504 65 150 0.0 0.0 0.00 0.00 0.00 37 1014.7
20260901153004 64 163 0.0 1.0 0.00 0.00 0.00 37 1014.7
20260901152504 63 134 0.0 2.0 0.00 0.00 0.00 38 1014.6
20260901151504 62 150 0.0 2.0 0.00 0.00 0.00 38 1014.6
20260901151004 62 141 0.0 0.0 0.00 0.00 0.00 40 1014.6
20260901150504 61 160 0.0 2.0 0.00 0.00 0.00 41 1014.6
20260901150004 61 133 0.0 2.0 0.00 0.00 0.00 42 1014.6
20260901145504 60 150 1.0 8.0 0.00 0.00 0.00 44 1014.6
20260901145004 59 163 0.0 2.0 0.00 0.00 0.00 45 1014.6
20260901144503 58 161 0.0 1.0 0.00 0.00 0.00 47 1014.6
20260901144003 57 167 0.0 1.0 0.00 0.00 0.00 48 1014.6
20260901143504 57 167 0.0 1.0 0.00 0.00 0.00 49 1014.6
20260901143004 57 155 0.0 2.0 0.00 0.00 0.00 49 1014.7
20260901142004 57 149 0.0 0.0 0.00 0.00 0.00 48 1014.5
20260901141504 57 145 0.0 0.0 0.00 0.00 0.00 48 1014.6
20260901141003 57 139 0.0 0.0 0.00 0.00 0.00 48 1014.6
20260901140504 57 148 0.0 0.0 0.00 0.00 0.00 48 1014.6
20260901135004 56 158 0.0 0.0 0.00 0.00 0.00 48 1014.6
20260901134504 56 164 0.0 0.0 0.00 0.00 0.00 49 1014.8
20260901134003 56 148 0.0 0.0 0.00 0.00 0.00 48 1014.9
20260901133504 56 148 0.0 0.0 0.00 0.00 0.00 48 1014.8
20260901133003 56 150 0.0 0.0 0.00 0.00 0.00 48 1014.9
20260901132504 57 150 0.0 0.0 0.00 0.00 0.00 47 1014.9
20260901132004 57 150 0.0 0.0 0.00 0.00 0.00 47 1015.0
20260901130504 58 158 0.0 0.0 0.00 0.00 0.00 45 1014.9
20260901130004 58 159 0.0 0.0 0.00 0.00 0.00 45 1015.0
20260901125503 59 163 0.0 0.0 0.00 0.00 0.00 44 1014.9
20260901125003 59 163 0.0 0.0 0.00 0.00 0.00 45 1014.9
20260901124504 58 163 0.0 0.0 0.00 0.00 0.00 45 1014.9
20260901124004 58 163 0.0 0.0 0.00 0.00 0.00 46 1015.0
20260901123503 57 163 0.0 0.0 0.00 0.00 0.00 47 1015.1
20260901123004 56 163 0.0 0.0 0.00 0.00 0.00 48 1015.1
20260901122503 56 163 0.0 0.0 0.00 0.00 0.00 48 1015.2
20260901121503 57 211 0.0 0.0 0.00 0.00 0.00 45 1015.2
20260901121003 57 233 0.0 0.0 0.00 0.00 0.00 45 1015.1
20260901120504 58 233 0.0 0.0 0.00 0.00 0.00 45 1015.1
20260901120003 58 233 0.0 0.0 0.00 0.00 0.00 44 1015.1
20260901115004 59 233 0.0 0.0 0.00 0.00 0.00 44 1015.1
20260901114504 59 233 0.0 0.0 0.00 0.00 0.00 43 1015.2
20260901114003 59 233 0.0 0.0 0.00 0.00 0.00 42 1015.2
20260901113504 60 233 0.0 0.0 0.00 0.00 0.00 41 1015.3
20260901113004 61 233 0.0 0.0 0.00 0.00 0.00 41 1015.2
20260901112504 60 233 0.0 0.0 0.00 0.00 0.00 42 1015.2
20260901112004 59 233 0.0 0.0 0.00 0.00 0.00 43 1015.2
20260901110004 60 233 0.0 0.0 0.00 0.00 0.00 43 1015.3
20260901105504 60 233 0.0 0.0 0.00 0.00 0.00 43 1015.3
20260901105004 60 234 0.0 0.0 0.00 0.00 0.00 43 1015.2
20260901104504 60 234 0.0 0.0 0.00 0.00 0.00 43 1015.3
20260901104004 60 234 0.0 0.0 0.00 0.00 0.00 42 1015.2
20260901103503 61 234 0.0 0.0 0.00 0.00 0.00 42 1015.3
20260901103004 61 234 0.0 0.0 0.00 0.00 0.00 42 1015.3
20260901102504 61 234 0.0 0.0 0.00 0.00 0.00 42 1015.4
20260901101504 61 234 0.0 0.0 0.00 0.00 0.00 41 1015.4
20260901101004 61 234 0.0 0.0 0.00 0.00 0.00 41 1015.4
20260901100504 61 234 0.0 0.0 0.00 0.00 0.00 42 1015.4
20260901100004 61 234 0.0 0.0 0.00 0.00 0.00 42 1015.4
20260901095503 61 234 0.0 0.0 0.00 0.00 0.00 42 1015.4
20260901095003 61 234 0.0 0.0 0.00 0.00 0.00 41 1015.4
20260901094504 62 234 0.0 0.0 0.00 0.00 0.00 41 1015.4
20260901094003 62 234 0.0 0.0 0.00 0.00 0.00 41 1015.4
20260901093504 62 234 0.0 0.0 0.00 0.00 0.00 41 1015.4
20260901093004 62 234 0.0 0.0 0.00 0.00 0.00 41 1015.4
20260901092503 62 234 0.0 0.0 0.00 0.00 0.00 41 1015.3
20260901092004 61 234 0.0 0.0 0.00 0.00 0.00 42 1015.4
20260901091504 61 234 0.0 0.0 0.00 0.00 0.00 42 1015.4
20260901091004 61 234 0.0 0.0 0.00 0.00 0.00 42 1015.4
20260901090504 61 234 0.0 0.0 0.00 0.00 0.00 42 1015.4
20260901090004 62 234 0.0 0.0 0.00 0.00 0.00 41 1015.4
20260901085505 62 247 0.0 0.0 0.00 0.00 0.00 41 1015.4
20260901085004 62 247 0.0 0.0 0.00 0.00 0.00 41 1015.5
20260901084504 62 248 0.0 0.0 0.00 0.00 0.00 40 1015.5
20260901084004 62 248 0.0 0.0 0.00 0.00 0.00 41 1015.5
20260901083503 62 248 0.0 0.0 0.00 0.00 0.00 40 1015.5
20260901083004 62 248 0.0 0.0 0.00 0.00 0.00 40 1015.5
20260901082504 63 248 0.0 0.0 0.00 0.00 0.00 40 1015.6
20260901081504 62 248 0.0 0.0 0.00 0.00 0.00 41 1015.6
20260901081004 61 248 0.0 0.0 0.00 0.00 0.00 41 1015.6
20260901080504 61 248 0.0 0.0 0.00 0.00 0.00 40 1015.7
20260901080003 62 254 0.0 0.0 0.00 0.00 0.00 40 1015.8
20260901075503 61 254 0.0 0.0 0.00 0.00 0.00 41 1015.8
20260901075004 61 254 0.0 0.0 0.00 0.00 0.00 41 1015.8
20260901074503 61 255 0.0 0.0 0.00 0.00 0.00 41 1015.8
20260901073004 62 313 0.0 0.0 0.00 0.00 0.00 38 1015.8
20260901072504 63 313 0.0 0.0 0.00 0.00 0.00 38 1015.9
20260901072004 63 313 0.0 0.0 0.00 0.00 0.00 37 1015.9
20260901071503 64 313 0.0 0.0 0.00 0.00 0.00 37 1015.9
20260901071005 64 313 0.0 0.0 0.00 0.00 0.00 37 1015.9
20260901070504 63 313 0.0 0.0 0.00 0.00 0.00 38 1015.9
20260901070004 64 313 0.0 0.0 0.00 0.00 0.00 37 1016.0
20260901065503 63 313 0.0 0.0 0.00 0.00 0.00 37 1016.0
20260901065004 64 313 0.0 0.0 0.00 0.00 0.00 37 1016.0
20260901064504 63 313 0.0 0.0 0.00 0.00 0.00 37 1016.1
20260901064004 64 313 0.0 0.0 0.00 0.00 0.00 36 1016.2
20260901063004 64 313 0.0 0.0 0.00 0.00 0.00 35 1016.1
20260901062504 65 313 0.0 0.0 0.00 0.00 0.00 34 1016.3
20260901062003 65 313 0.0 0.0 0.00 0.00 0.00 35 1016.2
20260901061504 66 313 0.0 0.0 0.00 0.00 0.00 33 1016.3
20260901061004 66 313 0.0 0.0 0.00 0.00 0.00 34 1016.4
20260901060503 66 313 0.0 0.0 0.00 0.00 0.00 33 1016.4
20260901060004 67 313 0.0 0.0 0.00 0.00 0.00 33 1016.5
20260901055503 66 313 0.0 0.0 0.00 0.00 0.00 33 1016.5
20260901055003 66 313 0.0 0.0 0.00 0.00 0.00 33 1016.5
20260901054503 67 313 0.0 0.0 0.00 0.00 0.00 32 1016.5
20260901054004 66 313 0.0 0.0 0.00 0.00 0.00 33 1016.5
20260901053504 66 313 0.0 0.0 0.00 0.00 0.00 32 1016.6
20260901053004 66 313 0.0 0.0 0.00 0.00 0.00 33 1016.6
20260901052503 66 313 0.0 0.0 0.00 0.00 0.00 32 1016.7
20260901052004 66 313 0.0 0.0 0.00 0.00 0.00 32 1016.7
20260901051504 67 5 0.0 0.0 0.00 0.00 0.00 32 1016.7
20260901051004 66 18 0.0 0.0 0.00 0.00 0.00 33 1016.8
20260901050503 66 20 0.0 0.0 0.00 0.00 0.00 32 1016.8
20260901050004 67 20 0.0 0.0 0.00 0.00 0.00 32 1016.8
20260901045504 67 20 0.0 0.0 0.00 0.00 0.00 31 1016.9
20260901045003 67 20 0.0 0.0 0.00 0.00 0.00 31 1016.9
20260901044506 67 19 0.0 0.0 0.00 0.00 0.00 31 1016.9
20260901044003 67 19 0.0 0.0 0.00 0.00 0.00 31 1016.9
20260901042504 68 19 0.0 0.0 0.00 0.00 0.00 31 1017.0
20260901041504 69 19 0.0 0.0 0.00 0.00 0.00 30 1017.0
20260901041004 69 19 0.0 0.0 0.00 0.00 0.00 30 1017.0
20260901040503 69 19 0.0 0.0 0.00 0.00 0.00 29 1017.0
20260901040003 69 19 0.0 0.0 0.00 0.00 0.00 28 1017.0
20260901035504 69 19 0.0 0.0 0.00 0.00 0.00 28 1017.0
20260901034504 70 19 0.0 0.0 0.00 0.00 0.00 27 1017.1
20260901034004 70 19 0.0 0.0 0.00 0.00 0.00 27 1017.1
20260901033504 70 19 0.0 0.0 0.00 0.00 0.00 27 1017.2
20260901033004 70 19 0.0 0.0 0.00 0.00 0.00 27 1017.1
20260901032003 70 19 0.0 0.0 0.00 0.00 0.00 27 1017.1
20260901031504 70 19 0.0 0.0 0.00 0.00 0.00 26 1017.1
20260901031004 70 19 0.0 0.0 0.00 0.00 0.00 26 1017.0
20260901030504 70 19 0.0 0.0 0.00 0.00 0.00 26 1016.9
20260901030003 70 19 0.0 0.0 0.00 0.00 0.00 26 1016.9
20260901025504 70 19 0.0 0.0 0.00 0.00 0.00 26 1016.9
20260901024504 71 19 0.0 0.0 0.00 0.00 0.00 26 1016.8
20260901023504 71 19 0.0 0.0 0.00 0.00 0.00 25 1016.8
20260901023003 72 19 0.0 0.0 0.00 0.00 0.00 25 1016.8
20260901022504 72 19 0.0 0.0 0.00 0.00 0.00 25 1016.8
20260901022003 72 5 0.0 0.0 0.00 0.00 0.00 24 1016.8
20260901021003 73 338 0.0 0.0 0.00 0.00 0.00 24 1016.8
20260901020503 73 32 0.0 0.0 0.00 0.00 0.00 24 1016.9
20260901020004 73 33 0.0 0.0 0.00 0.00 0.00 23 1016.9
20260901015004 74 42 0.0 0.0 0.00 0.00 0.00 23 1016.9
20260901014504 75 46 0.0 0.0 0.00 0.00 0.00 23 1016.9
20260901014004 75 46 0.0 0.0 0.00 0.00 0.00 22 1016.9
20260901013503 76 48 0.0 0.0 0.00 0.00 0.00 23 1016.9
20260901013004 76 47 0.0 0.0 0.00 0.00 0.00 22 1016.9
20260901012504 76 37 0.0 0.0 0.00 0.00 0.00 22 1017.0
20260901012003 76 51 0.0 0.0 0.00 0.00 0.00 22 1016.9
20260901011503 77 46 0.0 0.0 0.00 0.00 0.00 22 1016.9
20260901011004 77 65 0.0 1.0 0.00 0.00 0.00 21 1016.9
20260901010504 77 47 0.0 1.0 0.00 0.00 0.00 21 1016.9
20260901010003 77 38 0.0 0.0 0.00 0.00 0.00 21 1016.9
20260901005504 78 17 0.0 1.0 0.00 0.00 0.00 21 1016.9
20260901005004 78 31 0.0 0.0 0.00 0.00 0.00 20 1017.0
20260901004503 78 39 0.0 1.0 0.00 0.00 0.00 20 1017.0
20260901004003 78 37 0.0 0.0 0.00 0.00 0.00 21 1017.1
20260901003504 78 39 0.0 3.0 0.00 0.00 0.00 21 1017.1
20260901003004 78 36 0.0 3.0 0.00 0.00 0.00 20 1017.1
20260901002003 79 42 1.0 3.0 0.00 0.00 0.00 20 1017.2
20260901001504 79 61 0.0 1.0 0.00 0.00 0.00 20 1017.2
20260901001003 80 50 0.0 0.0 0.00 0.00 0.00 19 1017.3
20260901000504 80 14 0.0 3.0 0.00 0.00 0.00 19 1017.2
20260901000004 80 33 0.0 1.0 0.00 0.00 0.00 19 1017.3
20260831235504 80 40 0.0 0.0 0.00 0.00 0.00 19 1017.4
20260831235004 81 55 0.0 1.0 0.00 0.00 0.00 19 1017.4
20260831234004 82 2 0.0 3.0 0.00 0.00 0.00 18 1017.5
20260831233503 82 18 0.0 2.0 0.00 0.00 0.00 17 1017.5
20260831233004 83 0 0.0 2.0 0.00 0.00 0.00 17 1017.5
20260831232503 83 13 0.0 1.0 0.00 0.00 0.00 17 1017.5
20260831232003 83 254 0.0 0.0 0.00 0.00 0.00 18 1017.5
20260831231503 84 241 0.0 0.0 0.00 0.00 0.00 17 1017.6
20260831231003 82 242 0.0 0.0 0.00 0.00 0.00 18 1017.6
20260831230504 81 242 0.0 0.0 0.00 0.00 0.00 19 1017.7
20260831230004 81 246 0.0 0.0 0.00 0.00 0.00 19 1017.8
20260831225503 80 242 0.0 0.0 0.00 0.00 0.00 19 1017.8
20260831225004 80 223 0.0 1.0 0.00 0.00 0.00 19 1017.8
20260831224504 80 162 0.0 0.0 0.00 0.00 0.00 19 1017.9
20260831224004 79 207 0.0 2.0 0.00 0.00 0.00 19 1018.0
20260831223503 80 100 0.0 1.0 0.00 0.00 0.00 19 1018.0
20260831223004 80 147 0.0 1.0 0.00 0.00 0.00 19 1018.0
20260831222004 80 131 0.0 1.0 0.00 0.00 0.00 19 1018.1
20260831221503 79 136 0.0 1.0 0.00 0.00 0.00 19 1018.1
20260831221004 79 147 0.0 3.0 0.00 0.00 0.00 20 1018.2
20260831220504 79 122 0.0 3.0 0.00 0.00 0.00 19 1018.3
20260831215004 79 155 0.0 2.0 0.00 0.00 0.00 19 1018.5
20260831214504 79 125 0.0 1.0 0.00 0.00 0.00 20 1018.5
20260831214004 78 194 0.0 1.0 0.00 0.00 0.00 20 1018.5
20260831213504 79 197 0.0 1.0 0.00 0.00 0.00 20 1018.6
20260831213003 78 170 0.0 2.0 0.00 0.00 0.00 20 1018.7
20260831212503 78 125 0.0 1.0 0.00 0.00 0.00 20 1018.7
20260831212004 78 164 0.0 1.0 0.00 0.00 0.00 20 1018.8
20260831211504 78 133 0.0 2.0 0.00 0.00 0.00 19 1018.7
20260831211004 79 81 0.0 0.0 0.00 0.00 0.00 20 1018.8
20260831210504 78 116 0.0 2.0 0.00 0.00 0.00 19 1018.8
20260831210004 78 82 0.0 2.0 0.00 0.00 0.00 20 1018.9
20260831205504 78 107 0.0 1.0 0.00 0.00 0.00 19 1018.9
20260831205004 78 138 0.0 1.0 0.00 0.00 0.00 19 1019.0
20260831204504 78 141 0.0 3.0 0.00 0.00 0.00 20 1019.0
20260831203503 77 73 0.0 0.0 0.00 0.00 0.00 21 1019.1
20260831203004 76 105 0.0 3.0 0.00 0.00 0.00 20 1019.2
20260831202504 77 80 0.0 5.0 0.00 0.00 0.00 22 1019.2
20260831201003 75 79 0.0 1.0 0.00 0.00 0.00 22 1019.4
20260831200504 75 110 1.0 2.0 0.00 0.00 0.00 23 1019.4
20260831200004 74 103 0.0 3.0 0.00 0.00 0.00 22 1019.5
20260831195504 75 74 0.0 3.0 0.00 0.00 0.00 23 1019.4
20260831194503 74 110 0.0 2.0 0.00 0.00 0.00 23 1019.5
20260831194004 74 108 0.0 2.0 0.00 0.00 0.00 24 1019.5
20260831193504 73 122 0.0 2.0 0.00 0.00 0.00 23 1019.6
20260831193004 74 140 1.0 2.0 0.00 0.00 0.00 23 1019.7
20260831192504 74 143 0.0 2.0 0.00 0.00 0.00 24 1019.7
20260831192004 74 99 1.0 2.0 0.00 0.00 0.00 23 1019.8
20260831191003 73 134 1.0 3.0 0.00 0.00 0.00 24 1019.9
20260831190503 73 119 1.0 5.0 0.00 0.00 0.00 23 1020.0
20260831190004 73 160 0.0 2.0 0.00 0.00 0.00 25 1020.0
20260831185504 72 114 1.0 3.0 0.00 0.00 0.00 25 1020.0
20260831184004 71 101 1.0 3.0 0.00 0.00 0.00 27 1020.3
20260831183503 70 117 2.0 3.0 0.00 0.00 0.00 28 1020.3
20260831183004 70 119 1.0 3.0 0.00 0.00 0.00 28 1020.3
20260831182503 70 120 1.0 3.0 0.00 0.00 0.00 28 1020.3
20260831182004 70 128 1.0 3.0 0.00 0.00 0.00 28 1020.3
20260831181504 69 106 2.0 3.0 0.00 0.00 0.00 29 1020.4
20260831181003 69 106 1.0 3.0 0.00 0.00 0.00 30 1020.5
20260831180503 68 115 1.0 3.0 0.00 0.00 0.00 30 1020.5
20260831180004 68 112 1.0 3.0 0.00 0.00 0.00 30 1020.5
20260831175503 68 108 0.0 3.0 0.00 0.00 0.00 31 1020.6
20260831174504 67 136 1.0 3.0 0.00 0.00 0.00 32 1020.6
20260831174004 67 118 1.0 3.0 0.00 0.00 0.00 32 1020.7
20260831173504 66 136 0.0 2.0 0.00 0.00 0.00 33 1020.7
20260831173003 66 120 1.0 3.0 0.00 0.00 0.00 33 1020.7
20260831172503 65 126 1.0 2.0 0.00 0.00 0.00 33 1020.8
20260831172004 66 125 2.0 5.0 0.00 0.00 0.00 33 1020.8
20260831171504 66 142 1.0 3.0 0.00 0.00 0.00 34 1020.9
20260831171004 65 123 0.0 3.0 0.00 0.00 0.00 33 1020.9